Norco, LA

9:54 AM CDT on May 26, 2017 (GMT -0500)
Bocage | | Change Station
Active Advisory: Flood Warning

Elev 16 ft 29.98 °N, 90.37 °W | Updated 28 seconds ago

Clear
Clear
81.0 °F
Feels Like 83 °F
N
2.9
Wind Variable Wind from ESE
Gusts 4.9 mph

Today
High -- | Low -- °F
--% Chance of Precip.
Yesterday
High -- | Low -- °F
Precip. -- in
Pressure 30.01 in
Visibility 10.0 miles
Clouds Few 25000 ft
Heat Index 83 °F
Dew Point 66 °F
Humidity 61%
Rainfall 0.00 in
Snow Depth Not available.
6:02 AM 7:55 PM
New Moon, 1% visible
METAR KMSY 261353Z 17014KT 10SM FEW250 25/19 A3000 RMK AO2 SLP163 T02500189
Pressure 30.01 in
Visibility 10.0 miles
Clouds Few 25000 ft
Heat Index 83 °F
Dew Point 66 °F
Humidity 61%
Rainfall 0.00 in
Snow Depth Not available.
6:02 AM 7:55 PM
New Moon, 1% visible
METAR KMSY 261353Z 17014KT 10SM FEW250 25/19 A3000 RMK AO2 SLP163 T02500189

Get Your Daily Forecast Email!

Thanks for signing up!

Be on the lookout for a verification email in your inbox.

You'll start receiving severe weather alerts in your inbox..

×

10-Day Weather Forecast

Almanac

Astronomy

May. 26, 2017 Rise Set
Actual Time
Civil Twilight
Nautical Twilight
Astronomical Twilight
Moon
Length of Visible Light
Length of Day
Tomorrow will be .
, % of the Moon is Illuminated

Today's Extremes

State Highs State Lows

Community

WunderPhotos

Category 6

Welcome to Category 6. This is the collective home for Weather Underground's featured writeups by Dr. Jeff Masters (right), Bob Henson (left), Chris Burt, and other regular contributors.

Nearby

Air Quality

  Air Quality AQ Index Pollutant
Not available.

Snow Depth

Station Depth Elevation

Earthquake Activity

City Distance Mag. Time & Date
Minimum magnitude displayed is 2.5.

Coastal Water Temperatures

Place Temperature

Stations

Nearby Weather Stations

Station Location Temp. Windchill Dew Point Humidity Wind Precip. Elev Updated Type
                   

Watches & Warnings

Flood Warning
Issued: 9:20 AM CDT May. 26, 2017 – National Weather Service

The Flood Warning continues for
the Mississippi River at Reserve.
* Until Sunday June 11.
* At 8:00 am Friday the stage was 22.7 feet.
* Minor flooding is occurring and minor flooding is forecast.
* Flood stage is 22.0 feet.
* Forecast... the river is expected to continue rising until cresting
at around 23.0 feet by Thursday June 1st. The river is expected to
fall below flood stage by Saturday June 10th.
* Impact... at 22.0 feet... marine and Industrial interests along the
river, upstream barge operators, and facilities are impacted.
Navigation will become difficult for smaller river craft. Safety
precautions for river traffic are urged.


Lat... Lon 3009 9079 3001 9087 2999 9048 3007 9046